BIRK

Reykjavik Airport

Reykjavik, Iceland
Issued Wind Visibility Ceiling Temperature Dew Point Humidity Barometer
Aug-22
18:00 UTC
290°
8 KTS
10,000+ meters   13° C
55° F
C
45° F
67% 30.09" Hg
1019 hPa
VFR
Aug-22
17:00 UTC
280°
9 KTS
10,000+ meters   13° C
55° F
C
45° F
67% 30.09" Hg
1019 hPa
VFR
Aug-22
16:00 UTC
330°
10 KTS
10,000+ meters Broken
21,000' AGL
13° C
55° F
C
43° F
63% 30.09" Hg
1019 hPa
VFR
Aug-22
15:00 UTC
340°
12 KTS
10,000+ meters Broken
21,000' AGL
14° C
57° F
C
43° F
59% 30.09" Hg
1019 hPa
VFR
Aug-22
14:00 UTC
340°
11 KTS
10,000+ meters Broken
19,000' AGL
14° C
57° F
C
43° F
59% 30.12" Hg
1020 hPa
VFR
Aug-22
13:00 UTC
350°
8 KTS
10,000+ meters Broken
20,000' AGL
14° C
57° F
C
41° F
55% 30.12" Hg
1020 hPa
VFR
Aug-22
12:00 UTC
140°
4 KTS
10,000+ meters Broken
22,000' AGL
14° C
57° F
C
41° F
55% 30.12" Hg
1020 hPa
VFR
Aug-22
11:00 UTC
160°
4 KTS
10,000+ meters   14° C
57° F
C
39° F
51% 30.12" Hg
1020 hPa
VFR
Aug-22
10:00 UTC
090°
5 KTS
10,000+ meters   13° C
55° F
C
43° F
63% 30.15" Hg
1021 hPa
VFR
Aug-22
09:00 UTC
070°
7 KTS
10,000+ meters   11° C
52° F
C
43° F
72% 30.15" Hg
1021 hPa
VFR
Aug-22
08:00 UTC
080°
7 KTS
10,000+ meters   10° C
50° F
C
43° F
76% 30.15" Hg
1021 hPa
VFR
Aug-22
07:00 UTC
110°
6 KTS
10,000+ meters   C
46° F
C
41° F
82% 30.15" Hg
1021 hPa
VFR
Aug-22
06:00 UTC
090°
7 KTS
10,000+ meters   C
48° F
C
41° F
76% 30.15" Hg
1021 hPa
VFR
Aug-22
05:00 UTC
100°
6 KTS
10,000+ meters   C
46° F
C
41° F
82% 30.15" Hg
1021 hPa
VFR
Aug-22
04:00 UTC
090°
7 KTS
10,000+ meters   C
48° F
C
43° F
82% 30.15" Hg
1021 hPa
VFR
Aug-22
03:00 UTC
100°
7 KTS
10,000+ meters   C
48° F
C
43° F
82% 30.15" Hg
1021 hPa
VFR
Aug-22
02:00 UTC
100°
5 KTS
10,000+ meters   C
46° F
C
43° F
87% 30.15" Hg
1021 hPa
VFR
Aug-22
01:00 UTC
100°
5 KTS
10,000+ meters   C
46° F
C
41° F
82% 30.15" Hg
1021 hPa
VFR
Aug-22
00:00 UTC
090°
5 KTS
10,000+ meters   10° C
50° F
C
41° F
71% 30.15" Hg
1021 hPa
VFR
Aug-21
23:00 UTC
110°
3 KTS
10,000+ meters   11° C
52° F
C
41° F
67% 30.15" Hg
1021 hPa
VFR
Aug-21
22:00 UTC
120°
3 KTS
10,000+ meters   10° C
50° F
C
41° F
71% 30.15" Hg
1021 hPa
VFR
Aug-21
21:00 UTC
160°
5 KTS
10,000+ meters Broken
20,000' AGL
12° C
54° F
C
43° F
67% 30.12" Hg
1020 hPa
VFR
Aug-21
20:00 UTC
160°
9 KTS
10,000+ meters Broken
20,000' AGL
13° C
55° F
C
41° F
59% 30.12" Hg
1020 hPa
VFR
Aug-21
19:00 UTC
180°
9 KTS
10,000+ meters Broken
22,000' AGL
13° C
55° F
C
41° F
59% 30.12" Hg
1020 hPa
VFR